GW5296 Weather Reports


time (UTC)temp
C
wind
direction
speed
KPH
gust
KPH
rain 1hr
cm
rain 24hr
cm
rain mn
cm
humidity
%
barometer
mb
20260505130111 29 11 8.0 9.7 0.00 0.00 0.00 68 1009.0
20260505124612 30 342 14.5 16.1 0.00 0.00 0.00 64 1008.0
20260505124114 30 326 14.5 16.1 0.00 0.00 0.00 62 1008.0
20260505123612 31 343 14.5 20.9 0.00 0.00 0.00 61 1008.0
20260505123112 31 0 14.5 20.9 0.00 0.00 0.00 59 1008.0
20260505122611 31 338 6.4 6.4 0.00 0.00 0.00 59 1008.0
20260505122111 31 6 12.9 16.1 0.00 0.00 0.00 59 1008.0
20260505121614 31 4 6.4 9.7 0.00 0.00 0.00 60 1008.0
20260505121114 31 21 16.1 22.5 0.00 0.00 0.00 59 1008.0
20260505120611 31 2 16.1 16.1 0.00 0.00 0.00 58 1007.0
20260505120112 31 352 16.1 17.7 0.00 0.00 0.00 58 1007.0
20260505115612 31 326 14.5 16.1 0.00 0.00 0.00 58 1007.0
20260505115111 31 358 6.4 9.7 0.00 0.00 0.00 57 1007.0
20260505114611 31 321 9.7 12.9 0.00 0.00 0.00 57 1007.0
20260505114111 31 6 16.1 17.7 0.00 0.00 0.00 57 1007.0
20260505113611 32 326 16.1 17.7 0.00 0.00 0.00 57 1007.0
20260505113111 32 6 12.9 17.7 0.00 0.00 0.00 57 1007.0
20260505112611 32 1 14.5 17.7 0.00 0.00 0.00 56 1006.0
20260505112112 32 37 17.7 25.7 0.00 0.00 0.00 57 1006.0
20260505111612 32 17 14.5 20.9 0.00 0.00 0.00 55 1006.0
20260505111113 33 340 19.3 25.7 0.00 0.00 0.00 54 1006.0
20260505110611 34 328 9.7 11.3 0.00 0.00 0.00 55 1006.0
20260505110112 34 306 6.4 9.7 0.00 0.00 0.00 54 1006.0
20260505102113 35 283 6.4 9.7 0.00 0.00 0.00 50 1006.0
20260505101611 36 274 6.4 9.7 0.00 0.00 0.00 49 1006.0
20260505101112 36 221 4.8 4.8 0.00 0.00 0.00 48 1006.0
20260505100612 36 247 6.4 6.4 0.00 0.00 0.00 48 1006.0
20260505100111 36 244 1.6 1.6 0.00 0.00 0.00 49 1006.0
20260505095614 36 307 12.9 14.5 0.00 0.00 0.00 49 1006.0
20260505095111 36 265 8.0 11.3 0.00 0.00 0.00 50 1006.0
20260505094612 35 296 9.7 12.9 0.00 0.00 0.00 52 1006.0
20260505094112 35 241 1.6 3.2 0.00 0.00 0.00 51 1006.0
20260505093612 36 309 3.2 3.2 0.00 0.00 0.00 43 1007.0
20260505093111 36 209 0.0 0.0 0.00 0.00 0.00 43 1006.0
20260505092612 36 145 8.0 9.7 0.00 0.00 0.00 43 1006.0
20260505092111 37 198 3.2 3.2 0.00 0.00 0.00 42 1006.0
20260505091612 36 70 1.6 3.2 0.00 0.00 0.00 42 1006.0
20260505091111 37 42 3.2 4.8 0.00 0.00 0.00 44 1006.0
20260505090612 37 234 1.6 1.6 0.00 0.00 0.00 43 1006.0
20260505090111 36 250 4.8 4.8 0.00 0.00 0.00 44 1006.0
20260505085614 36 123 11.3 12.9 0.00 0.00 0.00 47 1007.0
20260505085112 37 153 0.0 0.0 0.00 0.00 0.00 45 1007.0
20260505084611 36 228 4.8 4.8 0.00 0.00 0.00 47 1007.0
20260505084111 36 166 3.2 4.8 0.00 0.00 0.00 48 1007.0
20260505083611 35 199 4.8 4.8 0.00 0.00 0.00 49 1007.0
20260505083111 36 267 3.2 3.2 0.00 0.00 0.00 49 1007.0
20260505082612 35 212 1.6 3.2 0.00 0.00 0.00 48 1007.0
20260505082113 36 126 11.3 12.9 0.00 0.00 0.00 51 1007.0
20260505081613 36 298 3.2 4.8 0.00 0.00 0.00 46 1007.0
20260505081113 35 51 3.2 4.8 0.00 0.00 0.00 48 1007.0
20260505080613 35 181 4.8 6.4 0.00 0.00 0.00 51 1008.0
20260505080113 36 190 1.6 1.6 0.00 0.00 0.00 47 1008.0
20260505075614 36 217 4.8 4.8 0.00 0.00 0.00 47 1008.0
20260505075116 35 138 0.0 0.0 0.00 0.00 0.00 49 1008.0
20260505074613 35 64 1.6 3.2 0.00 0.00 0.00 51 1008.0
20260505074113 35 86 3.2 6.4 0.00 0.00 0.00 51 1008.0
20260505073613 35 58 6.4 6.4 0.00 0.00 0.00 50 1008.0
20260505073113 35 135 1.6 3.2 0.00 0.00 0.00 52 1008.0
20260505072611 35 250 1.6 3.2 0.00 0.00 0.00 52 1008.0
20260505072112 36 131 0.0 1.6 0.00 0.00 0.00 50 1008.0
20260505071613 35 221 4.8 4.8 0.00 0.00 0.00 50 1009.0
20260505071111 35 141 4.8 4.8 0.00 0.00 0.00 50 1009.0
20260505070613 35 220 6.4 6.4 0.00 0.00 0.00 51 1009.0
20260505070112 35 198 8.0 12.9 0.00 0.00 0.00 53 1009.0
20260505065612 34 108 6.4 9.7 0.00 0.00 0.00 56 1009.0
20260505065114 34 130 6.4 9.7 0.00 0.00 0.00 55 1009.0
20260505064615 34 127 1.6 3.2 0.00 0.00 0.00 54 1009.0
20260505064113 33 238 3.2 3.2 0.00 0.00 0.00 56 1009.0
20260505063614 33 179 4.8 6.4 0.00 0.00 0.00 58 1009.0
20260505063112 33 191 3.2 4.8 0.00 0.00 0.00 57 1010.0
20260505062613 33 151 8.0 11.3 0.00 0.00 0.00 56 1010.0
20260505062113 33 241 3.2 3.2 0.00 0.00 0.00 57 1010.0
20260505061613 33 29 3.2 3.2 0.00 0.00 0.00 58 1010.0
20260505061111 32 356 3.2 3.2 0.00 0.00 0.00 57 1010.0
20260505060613 33 110 3.2 4.8 0.00 0.00 0.00 56 1010.0
20260505060112 32 176 3.2 3.2 0.00 0.00 0.00 57 1010.0
20260505055611 32 212 4.8 4.8 0.00 0.00 0.00 58 1010.0
20260505055112 32 221 1.6 1.6 0.00 0.00 0.00 58 1010.0
20260505054611 33 192 3.2 3.2 0.00 0.00 0.00 58 1010.0
20260505054112 32 240 3.2 4.8 0.00 0.00 0.00 60 1010.0
20260505053612 32 164 3.2 4.8 0.00 0.00 0.00 61 1010.0
20260505053112 32 172 3.2 3.2 0.00 0.00 0.00 60 1010.0
20260505052612 32 97 0.0 0.0 0.00 0.00 0.00 56 1010.0
20260505052111 32 209 1.6 1.6 0.00 0.00 0.00 59 1011.0
20260505051611 31 197 3.2 4.8 0.00 0.00 0.00 62 1011.0
20260505051112 31 205 4.8 6.4 0.00 0.00 0.00 62 1011.0
20260505050612 31 210 8.0 9.7 0.00 0.00 0.00 62 1011.0
20260505050112 31 221 0.0 0.0 0.00 0.00 0.00 61 1011.0
20260505041613 31 227 4.8 4.8 0.00 0.00 0.00 62 1011.0
20260505041112 31 179 1.6 3.2 0.00 0.00 0.00 62 1011.0
20260505040612 31 268 3.2 4.8 0.00 0.00 0.00 63 1011.0
20260505040112 31 293 1.6 3.2 0.00 0.00 0.00 63 1011.0
20260505035614 30 179 0.0 0.0 0.00 0.00 0.00 64 1011.0
20260505035113 30 276 0.0 0.0 0.00 0.00 0.00 64 1011.0
20260505034611 30 163 1.6 1.6 0.00 0.00 0.00 65 1011.0
20260505034113 30 137 3.2 4.8 0.00 0.00 0.00 64 1011.0
20260505033611 30 172 3.2 3.2 0.00 0.00 0.00 64 1011.0
20260505033114 29 134 0.0 0.0 0.00 0.00 0.00 63 1011.0
20260505032611 30 180 1.6 3.2 0.00 0.00 0.00 63 1011.0
20260505032110 29 215 3.2 3.2 0.00 0.00 0.00 64 1011.0
20260505031612 29 244 4.8 4.8 0.00 0.00 0.00 65 1011.0
20260505031112 28 252 1.6 1.6 0.00 0.00 0.00 66 1011.0
20260505030612 28 212 3.2 4.8 0.00 0.00 0.00 66 1011.0
20260505030113 28 197 3.2 3.2 0.00 0.00 0.00 66 1011.0
20260505025613 28 215 3.2 4.8 0.00 0.00 0.00 67 1011.0
20260505025111 27 236 3.2 3.2 0.00 0.00 0.00 69 1011.0
20260505024612 27 280 1.6 1.6 0.00 0.00 0.00 71 1011.0
20260505024113 27 227 3.2 3.2 0.00 0.00 0.00 70 1011.0
20260505023612 27 243 3.2 3.2 0.00 0.00 0.00 70 1011.0
20260505023112 27 235 3.2 3.2 0.00 0.00 0.00 70 1011.0
20260505022611 27 212 0.0 0.0 0.00 0.00 0.00 70 1011.0
20260505022112 27 225 0.0 0.0 0.00 0.00 0.00 71 1011.0
20260505021613 27 247 4.8 4.8 0.00 0.00 0.00 71 1011.0
20260505021111 27 239 3.2 4.8 0.00 0.00 0.00 71 1011.0
20260505020611 27 190 1.6 1.6 0.00 0.00 0.00 71 1011.0
20260505020111 27 225 0.0 0.0 0.00 0.00 0.00 73 1011.0
20260505015611 27 256 0.0 0.0 0.00 0.00 0.00 73 1011.0
20260505015111 26 302 1.6 3.2 0.00 0.00 0.00 73 1011.0
20260505014611 26 241 0.0 0.0 0.00 0.00 0.00 75 1011.0
20260505014112 26 234 0.0 0.0 0.00 0.00 0.00 76 1011.0
20260505013612 26 223 0.0 0.0 0.00 0.00 0.00 77 1011.0
20260505013111 26 228 0.0 0.0 0.00 0.00 0.00 77 1011.0
20260505012611 26 214 0.0 0.0 0.00 0.00 0.00 77 1011.0
20260505012111 26 217 0.0 0.0 0.00 0.00 0.00 77 1011.0
20260505011611 26 217 0.0 0.0 0.00 0.00 0.00 77 1010.0
20260505011112 26 217 0.0 0.0 0.00 0.00 0.00 77 1010.0
20260505010611 26 217 0.0 0.0 0.00 0.00 0.00 78 1010.0
20260505010112 26 218 0.0 0.0 0.00 0.00 0.00 79 1010.0
20260505005612 26 235 0.0 0.0 0.00 0.00 0.00 78 1010.0
20260505005111 25 220 0.0 0.0 0.00 0.00 0.00 77 1010.0
20260505004611 25 219 0.0 0.0 0.00 0.00 0.00 78 1010.0
20260505004113 25 221 0.0 0.0 0.00 0.00 0.00 78 1010.0
20260505003611 25 244 0.0 0.0 0.00 0.00 0.00 77 1010.0
20260505003113 25 241 0.0 0.0 0.00 0.00 0.00 78 1010.0
20260505002612 25 284 0.0 0.0 0.00 0.00 0.00 77 1010.0
20260505002113 26 213 0.0 0.0 0.00 0.00 0.00 77 1010.0
20260505001615 26 217 0.0 0.0 0.00 0.00 0.00 77 1010.0
20260505001113 25 241 0.0 1.6 0.00 0.00 0.00 77 1010.0
20260505000611 25 328 3.2 3.2 0.00 0.00 0.00 78 1010.0
20260505000112 25 319 3.2 3.2 0.00 0.00 0.00 79 1010.0
20260504235613 25 324 3.2 3.2 0.00 0.00 0.00 78 1010.0
20260504235111 26 354 4.8 4.8 0.00 0.00 0.00 77 1010.0
20260504234611 26 351 4.8 4.8 0.00 0.00 0.00 77 1010.0
20260504234111 26 339 1.6 3.2 0.00 0.00 0.00 77 1010.0
20260504233611 25 339 1.6 1.6 0.00 0.00 0.00 78 1010.0
20260504233112 25 324 0.0 0.0 0.00 0.00 0.00 78 1010.0
20260504232611 26 210 0.0 0.0 0.00 0.00 0.00 79 1010.0
20260504232113 26 215 0.0 0.0 0.00 0.00 0.00 78 1010.0
20260504231612 26 218 0.0 0.0 0.00 0.00 0.00 78 1010.0
20260504231111 26 234 1.6 1.6 0.00 0.00 0.00 78 1010.0
20260504230612 26 213 1.6 1.6 0.00 0.00 0.00 78 1010.0
20260504230112 26 213 0.0 1.6 0.00 0.00 0.00 77 1010.0
20260504225611 26 213 0.0 0.0 0.00 0.00 0.00 77 1010.0
20260504225112 26 217 0.0 0.0 0.00 0.00 0.00 78 1010.0
20260504224611 26 212 0.0 0.0 0.00 0.00 0.00 78 1010.0
20260504224111 26 216 0.0 0.0 0.00 0.00 0.00 78 1009.0
20260504223612 26 204 0.0 0.0 0.00 0.00 0.00 77 1009.0
20260504223112 26 201 0.0 0.0 0.00 0.00 0.00 77 1009.0
20260504222614 26 22 1.6 3.2 0.00 0.00 0.00 76 1009.0
20260504222113 26 158 0.0 0.0 0.00 0.00 0.00 75 1009.0
20260504221613 26 244 0.0 0.0 0.00 0.00 0.00 74 1009.0
20260504221112 26 224 0.0 0.0 0.00 0.00 0.00 74 1009.0
20260504220612 26 216 0.0 0.0 0.00 0.00 0.00 74 1009.0
20260504220111 26 232 1.6 1.6 0.00 0.00 0.00 75 1009.0
20260504215614 26 305 1.6 1.6 0.00 0.00 0.00 74 1009.0
20260504215112 26 192 0.0 0.0 0.00 0.00 0.00 75 1009.0
20260504214611 26 198 0.0 0.0 0.00 0.00 0.00 75 1009.0
20260504214111 26 185 0.0 0.0 0.00 0.00 0.00 75 1009.0
20260504213611 26 181 0.0 0.0 0.00 0.00 0.00 75 1009.0
20260504213113 26 195 0.0 0.0 0.00 0.00 0.00 74 1009.0
20260504212613 26 195 0.0 0.0 0.00 0.00 0.00 74 1009.0
20260504212115 26 212 0.0 0.0 0.00 0.00 0.00 75 1009.0
20260504211612 26 215 0.0 0.0 0.00 0.00 0.00 75 1009.0
20260504211113 26 195 0.0 0.0 0.00 0.00 0.00 76 1009.0
20260504210613 26 187 0.0 0.0 0.00 0.00 0.00 76 1009.0
20260504210113 26 226 0.0 0.0 0.00 0.00 0.00 74 1009.0
20260504205613 26 237 1.6 1.6 0.00 0.00 0.00 75 1009.0
20260504205111 26 217 0.0 0.0 0.00 0.00 0.00 76 1009.0
20260504204613 26 218 0.0 0.0 0.00 0.00 0.00 76 1009.0
20260504204113 26 231 0.0 0.0 0.00 0.00 0.00 76 1009.0
20260504203613 26 209 0.0 0.0 0.00 0.00 0.00 76 1009.0
20260504203114 26 208 0.0 0.0 0.00 0.00 0.00 76 1009.0
20260504202612 26 247 3.2 3.2 0.00 0.00 0.00 75 1009.0
20260504202116 26 211 1.6 3.2 0.00 0.00 0.00 75 1009.0
20260504201611 26 229 0.0 0.0 0.00 0.00 0.00 74 1010.0
20260504201112 26 203 1.6 1.6 0.00 0.00 0.00 74 1009.0
20260504200614 26 225 0.0 0.0 0.00 0.00 0.00 72 1009.0
20260504200114 26 227 0.0 1.6 0.00 0.00 0.00 72 1009.0
20260504195612 26 246 1.6 1.6 0.00 0.00 0.00 72 1009.0
20260504195115 26 247 1.6 1.6 0.00 0.00 0.00 71 1009.0
20260504194613 26 336 3.2 3.2 0.00 0.00 0.00 71 1009.0
20260504194113 26 261 0.0 0.0 0.00 0.00 0.00 71 1009.0
20260504193614 26 217 0.0 0.0 0.00 0.00 0.00 72 1009.0
20260504193113 26 209 0.0 0.0 0.00 0.00 0.00 72 1009.0
20260504192612 26 208 0.0 0.0 0.00 0.00 0.00 72 1009.0
20260504192111 26 192 0.0 0.0 0.00 0.00 0.00 71 1010.0
20260504191614 26 175 1.6 1.6 0.00 0.00 0.00 71 1010.0
20260504191112 27 161 1.6 1.6 0.00 0.00 0.00 71 1010.0
20260504190612 27 160 0.0 0.0 0.00 0.00 0.00 71 1010.0
20260504190113 27 185 0.0 0.0 0.00 0.00 0.00 70 1010.0
20260504185613 27 201 0.0 0.0 0.00 0.00 0.00 69 1010.0
20260504185114 27 203 0.0 0.0 0.00 0.00 0.00 69 1010.0
20260504184612 27 196 1.6 1.6 0.00 0.00 0.00 69 1010.0
20260504184113 27 216 1.6 1.6 0.00 0.00 0.00 69 1010.0
20260504183612 27 210 0.0 0.0 0.00 0.00 0.00 70 1010.0
20260504183113 27 205 1.6 1.6 0.00 0.00 0.00 69 1010.0
20260504182613 27 180 3.2 3.2 0.00 0.00 0.00 69 1010.0
20260504182115 27 180 3.2 3.2 0.00 0.00 0.00 69 1010.0
20260504181614 27 192 1.6 3.2 0.00 0.00 0.00 70 1010.0
20260504181114 27 189 1.6 1.6 0.00 0.00 0.00 70 1010.0
20260504180613 27 166 0.0 0.0 0.00 0.00 0.00 70 1010.0
20260504180112 27 192 0.0 0.0 0.00 0.00 0.00 69 1010.0
20260504175613 27 192 0.0 0.0 0.00 0.00 0.00 69 1010.0
20260504175115 27 159 0.0 1.6 0.00 0.00 0.00 69 1010.0
20260504174614 27 190 0.0 1.6 0.00 0.00 0.00 69 1010.0
20260504174113 27 179 1.6 3.2 0.00 0.00 0.00 69 1010.0
20260504173614 27 174 0.0 0.0 0.00 0.00 0.00 69 1010.0
20260504173114 27 179 3.2 3.2 0.00 0.00 0.00 69 1010.0
20260504172613 27 182 3.2 3.2 0.00 0.00 0.00 69 1010.0
20260504172114 27 158 4.8 4.8 0.00 0.00 0.00 69 1011.0
20260504171614 27 188 0.0 0.0 0.00 0.00 0.00 69 1010.0
20260504171113 27 187 0.0 0.0 0.00 0.00 0.00 69 1010.0
20260504170613 27 207 3.2 3.2 0.00 0.00 0.00 68 1010.0
20260504170113 27 186 1.6 1.6 0.00 0.00 0.00 68 1010.0
20260504160113 27 176 3.2 3.2 0.00 0.00 0.00 69 1010.0
20260504151113 28 133 4.8 6.4 0.00 0.00 0.00 67 1010.0
20260504150614 27 111 1.6 3.2 0.00 0.00 0.00 68 1010.0
20260504150113 28 174 1.6 3.2 0.00 0.00 0.00 68 1010.0
20260504141116 29 195 1.6 1.6 0.00 0.00 0.00 65 1008.0
20260504140616 28 179 3.2 3.2 0.00 0.00 0.00 65 1008.0
20260504140116 29 131 3.2 3.2 0.00 0.00 0.00 65 1007.0